| time (UTC) | temp F | wind direction | speed MPH | gust MPH | rain 1hr in | rain 24hr in | rain mn in | humidity % | barometer mb |
| 20260508185718 | 68 | 286 | 2.0 | 7.0 | 0.00 | 0.00 | 0.00 | 36 | 1012.9 |
| 20260508184718 | 68 | 208 | 0.0 | 8.0 | 0.00 | 0.00 | 0.00 | 33 | 1012.9 |
| 20260508183717 | 68 | 296 | 2.0 | 7.0 | 0.00 | 0.00 | 0.00 | 33 | 1012.9 |
| 20260508183217 | 67 | 248 | 2.0 | 7.0 | 0.00 | 0.00 | 0.00 | 36 | 1013.0 |
| 20260508182718 | 67 | 272 | 1.0 | 6.0 | 0.00 | 0.00 | 0.00 | 36 | 1013.1 |
| 20260508182219 | 67 | 284 | 2.0 | 6.0 | 0.00 | 0.00 | 0.00 | 36 | 1012.9 |
| 20260508181217 | 67 | 281 | 3.0 | 8.0 | 0.00 | 0.00 | 0.00 | 35 | 1013.2 |
| 20260508180718 | 68 | 279 | 1.0 | 7.0 | 0.00 | 0.00 | 0.00 | 38 | 1013.1 |
| 20260508180218 | 68 | 244 | 3.0 | 7.0 | 0.00 | 0.00 | 0.00 | 39 | 1013.2 |
| 20260508175718 | 67 | 304 | 3.0 | 8.0 | 0.00 | 0.00 | 0.00 | 39 | 1013.2 |
| 20260508175218 | 68 | 258 | 1.0 | 8.0 | 0.00 | 0.00 | 0.00 | 36 | 1013.2 |
| 20260508174721 | 68 | 310 | 3.0 | 6.0 | 0.00 | 0.00 | 0.00 | 41 | 1013.2 |
| 20260508174217 | 68 | 287 | 2.0 | 5.0 | 0.00 | 0.00 | 0.00 | 39 | 1013.2 |
| 20260508173719 | 67 | 198 | 0.0 | 3.0 | 0.00 | 0.00 | 0.00 | 36 | 1013.4 |
| 20260508173217 | 67 | 279 | 2.0 | 7.0 | 0.00 | 0.00 | 0.00 | 40 | 1013.5 |
| 20260508172718 | 67 | 207 | 2.0 | 7.0 | 0.00 | 0.00 | 0.00 | 36 | 1013.6 |
| 20260508171722 | 66 | 209 | 3.0 | 7.0 | 0.00 | 0.00 | 0.00 | 36 | 1013.6 |
| 20260508171221 | 66 | 174 | 1.0 | 6.0 | 0.00 | 0.00 | 0.00 | 39 | 1013.9 |
| 20260508170222 | 66 | 214 | 2.0 | 3.0 | 0.00 | 0.00 | 0.00 | 37 | 1013.8 |
| 20260508165720 | 66 | 173 | 1.0 | 5.0 | 0.00 | 0.00 | 0.00 | 40 | 1013.9 |
| 20260508165222 | 66 | 191 | 2.0 | 5.0 | 0.00 | 0.00 | 0.00 | 38 | 1014.0 |
| 20260508164724 | 66 | 262 | 1.0 | 3.0 | 0.00 | 0.00 | 0.00 | 39 | 1014.0 |
| 20260508164221 | 66 | 221 | 1.0 | 7.0 | 0.00 | 0.00 | 0.00 | 37 | 1014.1 |
| 20260508163721 | 66 | 286 | 1.0 | 8.0 | 0.00 | 0.00 | 0.00 | 40 | 1014.2 |
| 20260508163222 | 66 | 310 | 3.0 | 8.0 | 0.00 | 0.00 | 0.00 | 40 | 1014.3 |
| 20260508162218 | 66 | 319 | 0.0 | 8.0 | 0.00 | 0.00 | 0.00 | 39 | 1014.3 |
| 20260508161718 | 66 | 311 | 1.0 | 7.0 | 0.00 | 0.00 | 0.00 | 44 | 1014.4 |
| 20260508161218 | 65 | 301 | 2.0 | 7.0 | 0.00 | 0.00 | 0.00 | 41 | 1014.4 |
| 20260508160718 | 65 | 265 | 1.0 | 6.0 | 0.00 | 0.00 | 0.00 | 42 | 1014.4 |
| 20260508160218 | 64 | 298 | 0.0 | 3.0 | 0.00 | 0.00 | 0.00 | 40 | 1014.4 |
| 20260508155722 | 64 | 247 | 1.0 | 5.0 | 0.00 | 0.00 | 0.00 | 42 | 1014.4 |
| 20260508154718 | 65 | 265 | 1.0 | 9.0 | 0.00 | 0.00 | 0.00 | 44 | 1014.6 |
| 20260508153718 | 64 | 305 | 2.0 | 8.0 | 0.00 | 0.00 | 0.00 | 44 | 1014.9 |
| 20260508153220 | 64 | 262 | 1.0 | 7.0 | 0.00 | 0.00 | 0.00 | 44 | 1014.9 |
| 20260508152716 | 64 | 222 | 1.0 | 7.0 | 0.00 | 0.00 | 0.00 | 44 | 1015.0 |
| 20260508152215 | 64 | 288 | 0.0 | 9.0 | 0.00 | 0.00 | 0.00 | 44 | 1015.0 |
| 20260508151716 | 63 | 270 | 1.0 | 9.0 | 0.00 | 0.00 | 0.00 | 44 | 1015.0 |
| 20260508151215 | 63 | 304 | 2.0 | 7.0 | 0.00 | 0.00 | 0.00 | 43 | 1015.1 |
| 20260508150715 | 63 | 336 | 2.0 | 8.0 | 0.00 | 0.00 | 0.00 | 44 | 1015.2 |
| 20260508150216 | 62 | 295 | 2.0 | 8.0 | 0.00 | 0.00 | 0.00 | 45 | 1015.2 |
| 20260508145715 | 61 | 281 | 1.0 | 6.0 | 0.00 | 0.00 | 0.00 | 46 | 1015.3 |
| 20260508145215 | 61 | 267 | 2.0 | 8.0 | 0.00 | 0.00 | 0.00 | 43 | 1015.1 |
| 20260508144716 | 61 | 298 | 2.0 | 8.0 | 0.00 | 0.00 | 0.00 | 42 | 1015.4 |
| 20260508144215 | 61 | 283 | 1.0 | 6.0 | 0.00 | 0.00 | 0.00 | 46 | 1015.3 |
| 20260508143715 | 61 | 303 | 0.0 | 3.0 | 0.00 | 0.00 | 0.00 | 42 | 1015.4 |
| 20260508143215 | 60 | 227 | 2.0 | 3.0 | 0.00 | 0.00 | 0.00 | 45 | 1015.3 |
| 20260508142715 | 60 | 289 | 0.0 | 3.0 | 0.00 | 0.00 | 0.00 | 47 | 1015.3 |
| 20260508142217 | 60 | 289 | 2.0 | 3.0 | 0.00 | 0.00 | 0.00 | 52 | 1015.3 |
| 20260508141720 | 59 | 279 | 0.0 | 3.0 | 0.00 | 0.00 | 0.00 | 48 | 1015.4 |
| 20260508141220 | 59 | 277 | 2.0 | 3.0 | 0.00 | 0.00 | 0.00 | 48 | 1015.4 |
| 20260508140719 | 59 | 205 | 1.0 | 3.0 | 0.00 | 0.00 | 0.00 | 47 | 1015.5 |
| 20260508140218 | 59 | 295 | 1.0 | 3.0 | 0.00 | 0.00 | 0.00 | 53 | 1015.5 |
| 20260508135717 | 58 | 217 | 0.0 | 1.0 | 0.00 | 0.00 | 0.00 | 51 | 1015.5 |
| 20260508135218 | 58 | 301 | 0.0 | 1.0 | 0.00 | 0.00 | 0.00 | 56 | 1015.6 |
| 20260508134718 | 57 | 312 | 0.0 | 3.0 | 0.00 | 0.00 | 0.00 | 52 | 1015.6 |
| 20260508134219 | 57 | 269 | 0.0 | 3.0 | 0.00 | 0.00 | 0.00 | 54 | 1015.6 |
| 20260508133718 | 56 | 249 | 0.0 | 3.0 | 0.00 | 0.00 | 0.00 | 55 | 1015.6 |
| 20260508133218 | 56 | 264 | 0.0 | 3.0 | 0.00 | 0.00 | 0.00 | 54 | 1015.7 |
| 20260508132718 | 55 | 265 | 0.0 | 1.0 | 0.00 | 0.00 | 0.00 | 54 | 1015.7 |
| 20260508132218 | 55 | 265 | 0.0 | 0.0 | 0.00 | 0.00 | 0.00 | 56 | 1015.8 |
| 20260508131718 | 54 | 283 | 0.0 | 0.0 | 0.00 | 0.00 | 0.00 | 62 | 1015.8 |
| 20260508131218 | 53 | 342 | 0.0 | 1.0 | 0.00 | 0.00 | 0.00 | 61 | 1015.9 |
| 20260508130718 | 52 | 342 | 0.0 | 1.0 | 0.00 | 0.00 | 0.00 | 65 | 1015.8 |
| 20260508130218 | 52 | 355 | 0.0 | 0.0 | 0.00 | 0.00 | 0.00 | 65 | 1015.9 |
| 20260508125718 | 51 | 61 | 0.0 | 0.0 | 0.00 | 0.00 | 0.00 | 67 | 1015.9 |
| 20260508125219 | 50 | 154 | 0.0 | 1.0 | 0.00 | 0.00 | 0.00 | 70 | 1015.8 |
| 20260508124719 | 49 | 143 | 0.0 | 1.0 | 0.00 | 0.00 | 0.00 | 73 | 1015.8 |
| 20260508124218 | 48 | 198 | 0.0 | 0.0 | 0.00 | 0.00 | 0.00 | 73 | 1015.8 |
| 20260508123718 | 48 | 198 | 0.0 | 0.0 | 0.00 | 0.00 | 0.00 | 75 | 1015.8 |
| 20260508123218 | 47 | 198 | 0.0 | 0.0 | 0.00 | 0.00 | 0.00 | 75 | 1015.8 |
| 20260508122719 | 47 | 198 | 0.0 | 0.0 | 0.00 | 0.00 | 0.00 | 76 | 1015.7 |
| 20260508122223 | 46 | 198 | 0.0 | 0.0 | 0.00 | 0.00 | 0.00 | 76 | 1015.7 |
| 20260508121722 | 46 | 195 | 0.0 | 0.0 | 0.00 | 0.00 | 0.00 | 77 | 1015.6 |
| 20260508121222 | 45 | 195 | 0.0 | 0.0 | 0.00 | 0.00 | 0.00 | 80 | 1015.7 |
| 20260508120721 | 45 | 302 | 0.0 | 0.0 | 0.00 | 0.00 | 0.00 | 81 | 1015.7 |
| 20260508115721 | 43 | 22 | 0.0 | 0.0 | 0.00 | 0.00 | 0.00 | 83 | 1015.5 |
| 20260508114722 | 42 | 5 | 0.0 | 0.0 | 0.00 | 0.00 | 0.00 | 86 | 1015.5 |
| 20260508114221 | 41 | 5 | 0.0 | 0.0 | 0.00 | 0.00 | 0.00 | 85 | 1015.4 |
| 20260508113722 | 41 | 254 | 0.0 | 0.0 | 0.00 | 0.00 | 0.00 | 85 | 1015.3 |
| 20260508113221 | 41 | 213 | 0.0 | 1.0 | 0.00 | 0.00 | 0.00 | 85 | 1015.4 |
| 20260508112715 | 41 | 234 | 0.0 | 1.0 | 0.00 | 0.00 | 0.00 | 89 | 1015.4 |
| 20260508112214 | 41 | 103 | 0.0 | 0.0 | 0.00 | 0.00 | 0.00 | 90 | 1015.2 |
| 20260508111716 | 41 | 103 | 0.0 | 0.0 | 0.00 | 0.00 | 0.00 | 90 | 1015.2 |
| 20260508111215 | 41 | 103 | 0.0 | 0.0 | 0.00 | 0.00 | 0.00 | 89 | 1015.1 |
| 20260508110716 | 41 | 5 | 0.0 | 0.0 | 0.00 | 0.00 | 0.00 | 89 | 1015.0 |
| 20260508110215 | 40 | 325 | 0.0 | 0.0 | 0.00 | 0.00 | 0.00 | 89 | 1014.9 |
| 20260508105715 | 40 | 242 | 0.0 | 0.0 | 0.00 | 0.00 | 0.00 | 89 | 1014.8 |
| 20260508105215 | 40 | 132 | 0.0 | 0.0 | 0.00 | 0.00 | 0.00 | 89 | 1014.7 |
| 20260508104715 | 40 | 29 | 0.0 | 0.0 | 0.00 | 0.00 | 0.00 | 88 | 1014.7 |
| 20260508104217 | 40 | 29 | 0.0 | 0.0 | 0.00 | 0.00 | 0.00 | 88 | 1014.7 |
| 20260508103715 | 40 | 29 | 0.0 | 0.0 | 0.00 | 0.00 | 0.00 | 88 | 1014.6 |
| 20260508103217 | 40 | 29 | 0.0 | 0.0 | 0.00 | 0.00 | 0.00 | 88 | 1014.6 |
| 20260508102715 | 40 | 317 | 0.0 | 0.0 | 0.00 | 0.00 | 0.00 | 88 | 1014.7 |
| 20260508102215 | 40 | 317 | 0.0 | 0.0 | 0.00 | 0.00 | 0.00 | 87 | 1014.7 |
| 20260508101715 | 40 | 317 | 0.0 | 0.0 | 0.00 | 0.00 | 0.00 | 87 | 1014.7 |
| 20260508101215 | 40 | 317 | 0.0 | 0.0 | 0.00 | 0.00 | 0.00 | 87 | 1014.5 |
| 20260508100716 | 40 | 317 | 0.0 | 0.0 | 0.00 | 0.00 | 0.00 | 87 | 1014.5 |
| 20260508100215 | 40 | 317 | 0.0 | 0.0 | 0.00 | 0.00 | 0.00 | 88 | 1014.5 |
| 20260508095716 | 40 | 317 | 0.0 | 0.0 | 0.00 | 0.00 | 0.00 | 87 | 1014.5 |
| 20260508095215 | 41 | 317 | 0.0 | 0.0 | 0.00 | 0.00 | 0.00 | 86 | 1014.5 |
| 20260508094715 | 41 | 317 | 0.0 | 0.0 | 0.00 | 0.00 | 0.00 | 86 | 1014.5 |
| 20260508093715 | 41 | 317 | 0.0 | 0.0 | 0.00 | 0.00 | 0.00 | 86 | 1014.4 |
| 20260508093215 | 41 | 317 | 0.0 | 0.0 | 0.00 | 0.00 | 0.00 | 87 | 1014.2 |
| 20260508092715 | 41 | 317 | 0.0 | 0.0 | 0.00 | 0.00 | 0.00 | 87 | 1014.2 |
| 20260508092222 | 41 | 317 | 0.0 | 0.0 | 0.00 | 0.00 | 0.00 | 86 | 1014.2 |
| 20260508091723 | 41 | 317 | 0.0 | 0.0 | 0.00 | 0.00 | 0.00 | 86 | 1014.2 |
| 20260508091224 | 41 | 317 | 0.0 | 0.0 | 0.00 | 0.00 | 0.00 | 86 | 1014.2 |
| 20260508090721 | 42 | 317 | 0.0 | 0.0 | 0.00 | 0.00 | 0.00 | 86 | 1014.2 |
| 20260508090221 | 42 | 317 | 0.0 | 0.0 | 0.00 | 0.00 | 0.00 | 86 | 1014.2 |
| 20260508085722 | 42 | 317 | 0.0 | 0.0 | 0.00 | 0.00 | 0.00 | 86 | 1014.2 |
| 20260508085221 | 42 | 317 | 0.0 | 0.0 | 0.00 | 0.00 | 0.00 | 86 | 1014.1 |
| 20260508084221 | 42 | 317 | 0.0 | 0.0 | 0.00 | 0.00 | 0.00 | 85 | 1014.0 |
| 20260508083722 | 43 | 317 | 0.0 | 0.0 | 0.00 | 0.00 | 0.00 | 84 | 1014.0 |
| 20260508082718 | 43 | 317 | 0.0 | 0.0 | 0.00 | 0.00 | 0.00 | 82 | 1013.9 |
| 20260508082219 | 44 | 317 | 0.0 | 0.0 | 0.00 | 0.00 | 0.00 | 81 | 1013.9 |
| 20260508081719 | 45 | 317 | 0.0 | 0.0 | 0.00 | 0.00 | 0.00 | 80 | 1013.9 |
| 20260508081219 | 45 | 317 | 0.0 | 0.0 | 0.00 | 0.00 | 0.00 | 79 | 1013.8 |
| 20260508080718 | 46 | 317 | 0.0 | 0.0 | 0.00 | 0.00 | 0.00 | 78 | 1013.7 |
| 20260508080218 | 46 | 317 | 0.0 | 0.0 | 0.00 | 0.00 | 0.00 | 77 | 1013.7 |
| 20260508075718 | 47 | 317 | 0.0 | 0.0 | 0.00 | 0.00 | 0.00 | 77 | 1013.6 |
| 20260508075219 | 47 | 317 | 0.0 | 0.0 | 0.00 | 0.00 | 0.00 | 73 | 1013.5 |
| 20260508074218 | 49 | 317 | 0.0 | 0.0 | 0.00 | 0.10 | 0.00 | 73 | 1013.3 |
| 20260508073719 | 49 | 317 | 0.0 | 0.0 | 0.00 | 0.10 | 0.00 | 72 | 1013.2 |
| 20260508073218 | 49 | 317 | 0.0 | 0.0 | 0.00 | 0.10 | 0.00 | 70 | 1013.1 |
| 20260508072719 | 49 | 317 | 0.0 | 0.0 | 0.00 | 0.10 | 0.00 | 69 | 1013.0 |
| 20260508072221 | 49 | 317 | 0.0 | 0.0 | 0.00 | 0.10 | 0.00 | 69 | 1013.0 |
| 20260508071221 | 49 | 317 | 0.0 | 2.0 | 0.00 | 0.10 | 0.00 | 69 | 1012.9 |
| 20260508070723 | 49 | 317 | 0.0 | 2.0 | 0.00 | 0.10 | 0.00 | 69 | 1012.8 |
| 20260508070222 | 49 | 313 | 0.0 | 2.0 | 0.00 | 0.20 | 0.00 | 71 | 1012.8 |
| 20260508065722 | 49 | 313 | 0.0 | 2.0 | 0.00 | 0.20 | 0.00 | 74 | 1012.7 |
| 20260508065223 | 48 | 311 | 0.0 | 3.0 | 0.00 | 0.20 | 0.00 | 76 | 1012.7 |
| 20260508064723 | 47 | 309 | 0.0 | 3.0 | 0.00 | 0.30 | 0.00 | 79 | 1012.7 |
| 20260508064222 | 46 | 294 | 0.0 | 2.0 | 0.00 | 0.30 | 0.00 | 84 | 1012.6 |
| 20260508063722 | 46 | 289 | 0.0 | 2.0 | 0.00 | 0.30 | 0.00 | 88 | 1012.6 |
| 20260508063221 | 46 | 289 | 0.0 | 0.0 | 0.00 | 0.30 | 0.00 | 90 | 1012.6 |
| 20260508062719 | 46 | 289 | 0.0 | 0.0 | 0.00 | 0.30 | 0.00 | 90 | 1012.6 |
| 20260508062219 | 46 | 289 | 0.0 | 0.0 | 0.00 | 0.30 | 0.00 | 91 | 1012.6 |
| 20260508061719 | 46 | 289 | 0.0 | 0.0 | 0.00 | 0.30 | 0.00 | 91 | 1012.4 |
| 20260508061219 | 46 | 289 | 0.0 | 0.0 | 0.00 | 0.30 | 0.00 | 91 | 1012.4 |
| 20260508060719 | 46 | 289 | 0.0 | 0.0 | 0.00 | 0.30 | 0.00 | 90 | 1012.3 |
| 20260508060218 | 46 | 289 | 0.0 | 0.0 | 0.00 | 0.30 | 0.00 | 89 | 1012.4 |
| 20260508055718 | 46 | 289 | 0.0 | 1.0 | 0.00 | 0.30 | 0.00 | 89 | 1012.4 |
| 20260508054719 | 46 | 289 | 0.0 | 0.0 | 0.00 | 0.30 | 0.00 | 89 | 1012.3 |
| 20260508054219 | 46 | 221 | 0.0 | 0.0 | 0.00 | 0.30 | 0.00 | 89 | 1012.3 |
| 20260508052721 | 46 | 221 | 0.0 | 0.0 | 0.00 | 0.30 | 0.00 | 88 | 1012.1 |
| 20260508052218 | 47 | 221 | 0.0 | 0.0 | 0.00 | 0.30 | 0.00 | 87 | 1012.1 |
| 20260508051720 | 47 | 221 | 0.0 | 0.0 | 0.00 | 0.40 | 0.00 | 87 | 1012.1 |
| 20260508051219 | 47 | 221 | 0.0 | 0.0 | 0.00 | 0.40 | 0.00 | 87 | 1012.0 |
| 20260508050719 | 47 | 221 | 0.0 | 0.0 | 0.00 | 0.50 | 0.00 | 87 | 1011.9 |
| 20260508050220 | 48 | 221 | 0.0 | 0.0 | 0.00 | 0.70 | 0.00 | 88 | 1011.9 |
| 20260508045719 | 48 | 221 | 0.0 | 0.0 | 0.00 | 0.80 | 0.00 | 87 | 1011.9 |
| 20260508043718 | 48 | 221 | 0.0 | 0.0 | 0.00 | 1.50 | 0.00 | 86 | 1011.6 |
| 20260508043220 | 49 | 221 | 0.0 | 0.0 | 0.00 | 1.70 | 0.00 | 86 | 1011.7 |
| 20260508042719 | 49 | 221 | 0.0 | 0.0 | 0.00 | 1.70 | 0.00 | 85 | 1011.6 |
| 20260508042218 | 49 | 221 | 0.0 | 0.0 | 0.00 | 1.70 | 0.00 | 84 | 1011.4 |
| 20260508041719 | 49 | 221 | 0.0 | 0.0 | 0.00 | 1.70 | 0.00 | 84 | 1011.4 |
| 20260508041220 | 50 | 221 | 0.0 | 0.0 | 0.00 | 1.70 | 0.00 | 83 | 1011.4 |
| 20260508040722 | 50 | 221 | 0.0 | 0.0 | 0.00 | 1.80 | 0.00 | 82 | 1011.4 |
| 20260508040220 | 50 | 221 | 0.0 | 0.0 | 0.00 | 1.80 | 0.00 | 82 | 1011.4 |
| 20260508035719 | 50 | 221 | 0.0 | 0.0 | 0.00 | 1.90 | 0.00 | 81 | 1011.4 |
| 20260508035218 | 50 | 221 | 0.0 | 0.0 | 0.00 | 2.00 | 1.90 | 81 | 1011.3 |
| 20260508034719 | 50 | 221 | 0.0 | 0.0 | 0.00 | 2.00 | 1.90 | 81 | 1011.3 |
| 20260508034218 | 51 | 221 | 0.0 | 0.0 | 0.00 | 2.00 | 1.90 | 81 | 1011.3 |
| 20260508033718 | 51 | 221 | 0.0 | 0.0 | 0.00 | 2.00 | 1.90 | 80 | 1011.3 |
| 20260508033219 | 51 | 221 | 0.0 | 0.0 | 0.00 | 2.00 | 1.90 | 80 | 1011.3 |
| 20260508032716 | 51 | 221 | 0.0 | 0.0 | 0.00 | 2.00 | 1.90 | 80 | 1011.3 |
| 20260508032215 | 51 | 221 | 0.0 | 0.0 | 0.00 | 2.00 | 1.90 | 79 | 1011.2 |
| 20260508031716 | 51 | 221 | 0.0 | 0.0 | 0.00 | 2.00 | 1.90 | 78 | 1011.2 |
| 20260508031215 | 51 | 221 | 0.0 | 0.0 | 0.00 | 2.00 | 1.90 | 78 | 1011.2 |
| 20260508030716 | 51 | 221 | 0.0 | 0.0 | 0.00 | 2.00 | 1.90 | 78 | 1011.2 |
| 20260508030215 | 52 | 221 | 0.0 | 0.0 | 0.00 | 2.00 | 1.90 | 78 | 1011.2 |
| 20260508025716 | 52 | 221 | 0.0 | 0.0 | 0.00 | 2.00 | 1.90 | 78 | 1011.1 |
| 20260508025215 | 52 | 221 | 0.0 | 0.0 | 0.00 | 2.00 | 1.90 | 77 | 1011.1 |
| 20260508024715 | 52 | 221 | 0.0 | 0.0 | 0.00 | 2.00 | 1.90 | 77 | 1011.1 |
| 20260508024215 | 52 | 221 | 0.0 | 0.0 | 0.00 | 2.00 | 1.90 | 77 | 1011.1 |
| 20260508023717 | 52 | 221 | 0.0 | 0.0 | 0.00 | 2.00 | 1.90 | 77 | 1011.1 |
| 20260508023216 | 52 | 221 | 0.0 | 0.0 | 0.00 | 2.00 | 1.90 | 77 | 1011.2 |
| 20260508022717 | 52 | 221 | 0.0 | 0.0 | 0.00 | 2.00 | 1.90 | 77 | 1011.1 |
| 20260508022215 | 52 | 221 | 0.0 | 0.0 | 0.00 | 2.00 | 1.90 | 76 | 1011.0 |
| 20260508021716 | 52 | 221 | 0.0 | 0.0 | 0.00 | 2.00 | 1.90 | 75 | 1011.1 |
| 20260508021217 | 53 | 221 | 0.0 | 0.0 | 0.00 | 2.00 | 1.90 | 75 | 1010.9 |
| 20260508020716 | 53 | 221 | 0.0 | 0.0 | 0.00 | 2.00 | 1.90 | 75 | 1010.9 |
| 20260508020215 | 53 | 221 | 0.0 | 0.0 | 0.00 | 2.00 | 1.90 | 74 | 1010.9 |
| 20260508015715 | 53 | 221 | 0.0 | 0.0 | 0.00 | 2.00 | 1.90 | 74 | 1010.8 |
| 20260508015215 | 53 | 221 | 0.0 | 0.0 | 0.00 | 2.00 | 1.90 | 73 | 1010.9 |
| 20260508014716 | 53 | 221 | 0.0 | 0.0 | 0.00 | 2.00 | 1.90 | 73 | 1010.8 |
| 20260508014215 | 53 | 221 | 0.0 | 0.0 | 0.00 | 2.00 | 1.90 | 73 | 1010.7 |
| 20260508013716 | 54 | 221 | 0.0 | 0.0 | 0.00 | 2.00 | 1.90 | 73 | 1010.6 |
| 20260508013216 | 54 | 221 | 0.0 | 0.0 | 0.00 | 2.00 | 1.90 | 71 | 1010.6 |
| 20260508012715 | 54 | 221 | 0.0 | 0.0 | 0.00 | 2.00 | 1.90 | 73 | 1010.6 |
| 20260508012217 | 54 | 221 | 0.0 | 0.0 | 0.00 | 2.00 | 1.90 | 71 | 1010.6 |
| 20260508011716 | 54 | 221 | 0.0 | 0.0 | 0.00 | 2.00 | 1.90 | 71 | 1010.6 |
| 20260508011216 | 54 | 221 | 0.0 | 0.0 | 0.00 | 2.00 | 1.90 | 71 | 1010.5 |
| 20260508010718 | 54 | 221 | 0.0 | 0.0 | 0.00 | 2.00 | 1.90 | 71 | 1010.3 |
| 20260508010215 | 54 | 221 | 0.0 | 0.0 | 0.00 | 2.00 | 1.90 | 71 | 1010.2 |
| 20260508005716 | 54 | 221 | 0.0 | 0.0 | 0.00 | 2.00 | 1.90 | 72 | 1010.2 |
| 20260508005215 | 54 | 221 | 0.0 | 0.0 | 0.00 | 2.00 | 1.90 | 71 | 1010.0 |
| 20260508004717 | 54 | 221 | 0.0 | 0.0 | 0.00 | 2.00 | 1.90 | 71 | 1009.8 |
| 20260508004215 | 55 | 221 | 0.0 | 0.0 | 0.00 | 2.00 | 1.90 | 70 | 1009.8 |
| 20260508003716 | 55 | 221 | 0.0 | 1.0 | 0.00 | 2.00 | 1.90 | 69 | 1009.8 |
| 20260508003218 | 55 | 221 | 0.0 | 1.0 | 0.00 | 2.00 | 1.90 | 68 | 1009.6 |
| 20260508002717 | 55 | 221 | 0.0 | 0.0 | 0.00 | 2.00 | 1.90 | 68 | 1009.6 |
| 20260508002220 | 55 | 221 | 0.0 | 0.0 | 0.00 | 2.00 | 1.90 | 67 | 1009.6 |
| 20260508001719 | 56 | 221 | 0.0 | 0.0 | 0.00 | 2.00 | 1.90 | 66 | 1009.3 |
| 20260508001219 | 56 | 221 | 0.0 | 0.0 | 0.00 | 2.00 | 1.90 | 66 | 1009.3 |
| 20260508000718 | 56 | 221 | 0.0 | 0.0 | 0.00 | 2.00 | 1.90 | 65 | 1009.3 |
| 20260508000219 | 56 | 221 | 0.0 | 0.0 | 0.00 | 2.00 | 1.90 | 65 | 1009.4 |
| 20260507235719 | 56 | 221 | 0.0 | 0.0 | 0.00 | 2.00 | 1.90 | 65 | 1009.3 |
| 20260507235219 | 57 | 221 | 0.0 | 0.0 | 0.00 | 2.00 | 1.90 | 64 | 1009.2 |
| 20260507234719 | 57 | 221 | 0.0 | 0.0 | 0.00 | 2.00 | 1.90 | 64 | 1009.0 |
| 20260507234219 | 57 | 221 | 0.0 | 0.0 | 0.00 | 2.00 | 1.90 | 63 | 1009.0 |
| 20260507233719 | 57 | 186 | 0.0 | 0.0 | 0.00 | 2.00 | 1.90 | 63 | 1008.9 |
| 20260507233219 | 58 | 186 | 0.0 | 0.0 | 0.00 | 2.00 | 1.90 | 63 | 1009.0 |
| 20260507232719 | 58 | 186 | 0.0 | 0.0 | 0.00 | 2.00 | 1.90 | 61 | 1008.9 |
| 20260507232219 | 58 | 186 | 0.0 | 1.0 | 0.00 | 2.00 | 1.90 | 61 | 1008.8 |
| 20260507231719 | 59 | 173 | 0.0 | 1.0 | 0.00 | 2.00 | 1.90 | 60 | 1008.7 |
| 20260507231218 | 59 | 272 | 0.0 | 0.0 | 0.00 | 2.00 | 1.90 | 60 | 1008.7 |
| 20260507230719 | 60 | 272 | 0.0 | 3.0 | 0.00 | 2.00 | 1.90 | 58 | 1008.6 |
| 20260507230219 | 60 | 272 | 0.0 | 3.0 | 0.00 | 2.00 | 1.90 | 56 | 1008.4 |
| 20260507225718 | 61 | 272 | 3.0 | 3.0 | 0.00 | 2.00 | 1.90 | 52 | 1008.4 |
| 20260507225218 | 62 | 273 | 0.0 | 0.0 | 0.00 | 2.00 | 1.90 | 44 | 1008.3 |
| 20260507224719 | 62 | 273 | 0.0 | 0.0 | 0.00 | 2.00 | 1.90 | 46 | 1008.2 |
| 20260507224219 | 62 | 273 | 0.0 | 0.0 | 0.00 | 2.00 | 1.90 | 45 | 1008.3 |
| 20260507223718 | 62 | 273 | 0.0 | 0.0 | 0.00 | 2.00 | 1.90 | 45 | 1008.2 |
| 20260507223219 | 62 | 273 | 0.0 | 0.0 | 0.00 | 2.00 | 1.90 | 47 | 1008.2 |
| 20260507222719 | 62 | 273 | 0.0 | 0.0 | 0.00 | 2.00 | 1.90 | 46 | 1008.2 |
| 20260507222219 | 62 | 273 | 0.0 | 0.0 | 0.00 | 2.00 | 1.90 | 44 | 1008.2 |
| 20260507221719 | 62 | 273 | 0.0 | 0.0 | 0.00 | 2.00 | 1.90 | 45 | 1008.2 |
| 20260507221218 | 63 | 273 | 0.0 | 0.0 | 0.00 | 2.00 | 1.90 | 46 | 1008.2 |
| 20260507220719 | 63 | 273 | 0.0 | 0.0 | 0.00 | 2.00 | 1.90 | 43 | 1008.1 |
| 20260507220219 | 63 | 273 | 0.0 | 0.0 | 0.00 | 2.00 | 1.90 | 48 | 1008.1 |
| 20260507215718 | 63 | 273 | 0.0 | 0.0 | 0.00 | 2.00 | 1.90 | 47 | 1008.2 |
| 20260507215219 | 63 | 273 | 0.0 | 0.0 | 0.00 | 2.00 | 1.90 | 43 | 1008.2 |
| 20260507214719 | 63 | 146 | 0.0 | 0.0 | 0.00 | 2.00 | 1.90 | 43 | 1008.2 |
| 20260507214220 | 63 | 146 | 0.0 | 0.0 | 0.00 | 2.00 | 1.90 | 45 | 1008.3 |
| 20260507213719 | 63 | 147 | 0.0 | 1.0 | 0.00 | 2.00 | 1.90 | 41 | 1008.3 |
| 20260507213219 | 63 | 89 | 0.0 | 1.0 | 0.00 | 2.00 | 1.90 | 45 | 1008.4 |
| 20260507212719 | 63 | 88 | 0.0 | 0.0 | 0.00 | 2.00 | 1.90 | 43 | 1008.4 |
| 20260507212220 | 63 | 88 | 0.0 | 1.0 | 0.00 | 2.00 | 1.90 | 46 | 1008.4 |
| 20260507211719 | 63 | 317 | 0.0 | 1.0 | 0.00 | 2.00 | 1.90 | 42 | 1008.3 |
| 20260507211219 | 63 | 107 | 0.0 | 1.0 | 0.00 | 2.00 | 1.90 | 46 | 1008.5 |
| 20260507210720 | 63 | 105 | 0.0 | 1.0 | 0.00 | 2.00 | 1.90 | 44 | 1008.6 |
| 20260507210220 | 63 | 104 | 0.0 | 0.0 | 0.00 | 2.00 | 1.90 | 45 | 1008.5 |
| 20260507205719 | 63 | 104 | 0.0 | 0.0 | 0.00 | 2.00 | 1.90 | 41 | 1008.5 |
| 20260507205219 | 63 | 78 | 0.0 | 2.0 | 0.00 | 2.00 | 1.90 | 45 | 1008.5 |
| 20260507204719 | 63 | 78 | 0.0 | 2.0 | 0.00 | 2.00 | 1.90 | 46 | 1008.5 |
| 20260507204219 | 63 | 34 | 0.0 | 1.0 | 0.00 | 2.00 | 1.90 | 42 | 1008.5 |
| 20260507203719 | 63 | 343 | 0.0 | 2.0 | 0.00 | 2.00 | 1.90 | 43 | 1008.5 |
| 20260507203220 | 63 | 338 | 0.0 | 2.0 | 0.00 | 2.00 | 1.90 | 45 | 1008.4 |
| 20260507202720 | 63 | 334 | 0.0 | 3.0 | 0.00 | 2.00 | 1.90 | 46 | 1008.4 |
| 20260507202503 | 63 | 106 | 0.0 | 3.0 | 0.00 | 2.00 | 1.90 | 49 | 1008.4 |
| 20260507202004 | 63 | 315 | 0.0 | 3.0 | 0.00 | 2.00 | 1.90 | 39 | 1008.3 |
| 20260507201503 | 64 | 305 | 0.0 | 0.0 | 0.00 | 2.00 | 1.90 | 46 | 1008.4 |
| 20260507201004 | 64 | 303 | 0.0 | 0.0 | 0.00 | 2.00 | 1.90 | 43 | 1008.4 |
| 20260507200716 | 64 | 309 | 0.0 | 0.0 | 0.00 | 2.00 | 1.90 | 49 | 1008.3 |
| 20260507200216 | 64 | 273 | 0.0 | 3.0 | 0.00 | 2.00 | 1.90 | 43 | 1008.4 |
| 20260507195716 | 64 | 344 | 0.0 | 3.0 | 0.00 | 2.00 | 1.90 | 40 | 1008.6 |
| 20260507195216 | 64 | 37 | 0.0 | 1.0 | 0.00 | 2.00 | 1.90 | 45 | 1008.6 |
| 20260507194716 | 64 | 152 | 0.0 | 1.0 | 0.00 | 2.00 | 1.90 | 37 | 1008.7 |
| 20260507194216 | 64 | 333 | 0.0 | 2.0 | 0.00 | 2.00 | 1.90 | 41 | 1008.9 |
| 20260507193715 | 65 | 320 | 0.0 | 2.0 | 0.00 | 2.00 | 1.90 | 41 | 1009.0 |
| 20260507193216 | 65 | 330 | 0.0 | 1.0 | 0.00 | 2.00 | 1.90 | 37 | 1009.1 |
| 20260507192716 | 65 | 65 | 0.0 | 3.0 | 0.00 | 2.00 | 1.90 | 40 | 1009.3 |
| 20260507192216 | 65 | 314 | 0.0 | 3.0 | 0.00 | 2.00 | 1.90 | 42 | 1009.2 |
| 20260507191716 | 65 | 352 | 0.0 | 2.0 | 0.00 | 2.00 | 1.90 | 44 | 1009.2 |
| 20260507191216 | 65 | 290 | 0.0 | 1.0 | 0.00 | 2.00 | 1.90 | 43 | 1009.2 |
| 20260507190716 | 64 | 277 | 0.0 | 1.0 | 0.00 | 2.00 | 1.90 | 44 | 1009.3 |
| 20260507190216 | 65 | 340 | 0.0 | 1.0 | 0.00 | 2.00 | 1.90 | 44 | 1009.3 |